TimeEST,TemperatureF,Dew PointF,Humidity,Sea Level PressureIn,VisibilityMPH,Wind Direction,Wind SpeedMPH,Gust SpeedMPH,PrecipitationIn,Events,Conditions,WindDirDegrees,DateUTC
12:53 AM,55.9,54.0,93,29.37,4.0,South,24.2,38.0,0.05,Rain,Light Rain,180,2013-01-31 05:53:00
1:01 AM,55.4,53.6,94,29.36,5.0,South,24.2,36.8,0.00,Rain,Light Rain,190,2013-01-31 06:01:00
1:17 AM,55.4,53.6,94,29.34,1.8,South,24.2,40.3,0.03,,Overcast,190,2013-01-31 06:17:00
1:28 AM,55.4,53.6,94,29.33,2.5,SSW,19.6,33.4,0.07,Rain,Heavy Rain,200,2013-01-31 06:28:00
1:41 AM,57.2,53.6,88,29.32,3.0,South,20.7,35.7,0.08,Rain,Light Rain,180,2013-01-31 06:41:00
1:53 AM,57.0,54.0,89,29.31,2.5,South,28.8,46.0,0.09,,Overcast,190,2013-01-31 06:53:00
2:08 AM,57.2,53.6,88,29.29,4.0,South,23.0,42.6,N/A,,Overcast,190,2013-01-31 07:08:00
2:18 AM,57.2,53.6,88,29.28,5.0,South,25.3,36.8,0.00,Rain,Light Rain,180,2013-01-31 07:18:00
2:53 AM,57.9,55.0,90,29.23,6.0,South,27.6,41.4,0.01,Rain,Light Rain,190,2013-01-31 07:53:00
3:53 AM,59.0,55.0,87,29.14,7.0,South,26.5,41.4,0.03,Rain,Rain,190,2013-01-31 08:53:00
4:22 AM,59.0,57.2,94,29.10,2.5,South,23.0,41.4,0.12,Rain,Heavy Rain,190,2013-01-31 09:22:00
4:53 AM,60.1,57.0,90,29.06,1.8,South,23.0,54.1,0.45,Rain,Heavy Rain,190,2013-01-31 09:53:00
5:05 AM,60.8,57.2,88,29.10,2.5,SSW,31.1,56.4,0.09,Rain,Heavy Rain,200,2013-01-31 10:05:00
5:17 AM,59.0,57.2,94,29.11,1.5,South,21.9,36.8,0.23,Rain,Heavy Rain,190,2013-01-31 10:17:00
5:20 AM,59.0,55.4,88,29.10,2.0,South,21.9,34.5,0.23,Rain,Rain,190,2013-01-31 10:20:00
5:28 AM,59.0,55.4,88,29.10,9.0,South,16.1,32.2,0.23,Rain,Light Rain,190,2013-01-31 10:28:00
5:53 AM,57.9,54.0,87,29.10,5.0,South,13.8,25.3,0.29,Rain,Rain,190,2013-01-31 10:53:00
6:20 AM,55.4,53.6,94,29.06,10.0,SSE,11.5,19.6,0.02,Rain,Light Rain,160,2013-01-31 11:20:00
6:53 AM,54.0,52.0,93,29.05,10.0,South,11.5,-,0.03,,Mostly Cloudy,190,2013-01-31 11:53:00
7:03 AM,53.6,51.8,94,29.05,10.0,South,12.7,20.7,N/A,,Mostly Cloudy,190,2013-01-31 12:03:00
7:13 AM,53.6,51.8,94,29.05,10.0,South,12.7,21.9,0.00,Rain,Light Rain,190,2013-01-31 12:13:00
7:30 AM,53.6,51.8,94,29.05,10.0,South,13.8,25.3,0.00,,Overcast,180,2013-01-31 12:30:00
7:53 AM,53.1,51.1,93,29.04,10.0,South,13.8,31.1,0.00,,Overcast,180,2013-01-31 12:53:00
8:12 AM,53.6,46.4,77,29.09,10.0,West,16.1,43.7,0.00,Rain,Light Rain,260,2013-01-31 13:12:00
8:24 AM,53.6,44.6,72,29.10,10.0,West,18.4,31.1,0.00,,Overcast,270,2013-01-31 13:24:00
8:53 AM,51.1,42.1,71,29.13,10.0,West,12.7,25.3,0.00,Rain,Light Rain,280,2013-01-31 13:53:00
9:53 AM,48.9,34.0,56,29.20,10.0,West,15.0,33.4,0.00,,Overcast,260,2013-01-31 14:53:00
10:53 AM,48.0,26.1,42,29.27,10.0,WNW,16.1,33.4,N/A,,Clear,290,2013-01-31 15:53:00
11:53 AM,46.0,25.0,44,29.30,10.0,West,17.3,28.8,N/A,,Unknown,270,2013-01-31 16:53:00
12:53 PM,45.0,24.1,44,29.34,10.0,WNW,16.1,26.5,N/A,,Clear,300,2013-01-31 17:53:00
1:53 PM,46.0,21.0,37,29.37,10.0,West,10.4,27.6,N/A,,Mostly Cloudy,270,2013-01-31 18:53:00
2:53 PM,44.1,16.0,32,29.40,10.0,West,24.2,34.5,N/A,,Partly Cloudy,260,2013-01-31 19:53:00
3:53 PM,43.0,16.0,34,29.42,10.0,West,10.4,18.4,N/A,,Overcast,280,2013-01-31 20:53:00
4:53 PM,41.0,12.9,32,29.48,10.0,WNW,12.7,27.6,N/A,,Mostly Cloudy,290,2013-01-31 21:53:00
5:53 PM,37.9,15.1,39,29.54,10.0,WNW,19.6,29.9,N/A,,Clear,290,2013-01-31 22:53:00
6:53 PM,36.0,17.1,46,29.59,10.0,WNW,18.4,29.9,N/A,,Partly Cloudy,290,2013-01-31 23:53:00
7:53 PM,35.1,16.0,46,29.63,10.0,WNW,11.5,26.5,N/A,,Mostly Cloudy,290,2013-02-01 00:53:00
8:53 PM,33.1,10.0,38,29.66,10.0,WSW,15.0,26.5,N/A,,Clear,250,2013-02-01 01:53:00
9:53 PM,32.0,9.0,38,29.68,10.0,West,9.2,20.7,N/A,,Clear,260,2013-02-01 02:53:00
10:53 PM,32.0,10.0,40,29.68,10.0,West,5.8,23.0,N/A,,Partly Cloudy,260,2013-02-01 03:53:00
11:53 PM,30.9,15.1,52,29.70,10.0,WSW,11.5,19.6,N/A,,Overcast,240,2013-02-01 04:53:00